Regional Weather Roundup
Issued by NWS Wakefield, VA

Home | Current Version | Previous Version | Graphics & Text | Print | Product List | Glossary On
Versions: 1 2 3 4 5 6 7 8 9 10 11 12 13 14 15 16 17 18 19 20 21 22 23 24 25 26 27 28 29 30 31 32 33 34 35 36 37 38 39 40 41 42 43 44 45 46 47 48 49 50
000
ASUS41 KAKQ 280310
RWRAKQ

REGIONAL WEATHER ROUNDUP
NATIONAL WEATHER SERVICE WAKEFIELD VA
1000 PM EST THU NOV 27 2014

Note: "fair" indicates few or no clouds below 12,000 feet with no
significant weather and/or obstructions to visibility. * = Denotes
station may not report precipitation (e.g., rain,snow,etc.),
thunder or fog.

VAZ042-051-052>054-056-280400-
NORTHERN VIRGINIA

CITY           SKY/WX    TMP DP  RH WIND       PRES   REMARKS
WASH NATIONAL  MOCLDY    41  27  57 W7        30.18R
DULLES         CLOUDY    35  28  75 W9        30.18R
FORT BELVOIR   MOCLDY    37  28  70 W9        30.18R
QUANTICO       CLEAR     33  29  85 NW8       30.20R
FREDERICKSBRG* CLEAR     33  29  85 W5        30.18S
STAFFORD*      PTCLDY    30  30 100 CALM      30.22S
WARRENTON      CLEAR     28  28 100 W3        30.17S
CULPEPER*      FAIR      37  27  65 W5        30.18S
MANASSAS*      CLOUDY    30  30 100 W5        30.18S
LEESBURG*      CLOUDY    37  32  81 NW8       30.18R
WINCHESTER     CLOUDY    36  25  64 N7        30.18R
FRONT ROYAL*   CLOUDY    34  27  75 NW7       30.17R
LURAY*         CLOUDY    37  28  70 NW9       30.17R
$$

VAZ048-049-060>072-079>083-280400-
CENTRAL AND SOUTH CENTRAL VIRGINIA

CITY           SKY/WX    TMP DP  RH WIND       PRES   REMARKS
RICHMOND       MOCLDY    38  33  82 W5        30.19R
CHESTERFIELD*  MOCLDY    37  18  44 NW8       30.21R
PETERSBURG*    MOCLDY    40  27  60 W6        30.21R
HANOVER        CLEAR     31  30  96 CALM      30.20R
TAPPAHANNOCK*  CLEAR     33  28  83 CALM      30.19R
QUINTON*       CLOUDY    35  34  96 CALM      30.18S
CHARLOTTSVILLE CLEAR     34  21  59 CALM      30.19R
GORDONSVILLE*  CLEAR     32  24  72 W3        30.18R
ORANGE*        CLEAR     36  27  69 SW8       30.20R
LOUISA*        CLEAR     34  25  69 CALM      30.18R
BUMPASS*       CLEAR     33  26  75 CALM      30.19R
FARMVILLE*     CLEAR     36  24  62 CALM      30.21S
CREWE*         CLOUDY    36  26  66 W6        30.20R
FORT PICKETT*  MOCLDY    35  28  74 W6        30.20S
CHASE CITY*    CLEAR     36  27  71 W6        30.23S
CLARKSVILLE*   CLEAR     36  23  60 NW6       30.23S
SOUTH HILL*    PTCLDY    36  25  64 NW5       30.28R
LAWRENCEVILLE* CLEAR     36  29  76 CALM      30.20S
$$

VAZ088>098-280400-
SOUTHEAST VIRGINIA

CITY           SKY/WX    TMP DP  RH WIND       PRES   REMARKS
NORFOLK        PTCLDY    40  33  76 NW6       30.17R
VIRGINIA BEACH PTCLDY    40  35  83 NW8       30.16R
NORFOLK NAVAL  MOCLDY    42  33  70 NW12      30.18R
WEST POINT*    MOCLDY    39  32  76 NW3       30.20R
SALUDA*        CLOUDY    40  31  68 NW12G21   30.17R
NEWPORT NEWS   CLOUDY    41  35  79 NW6       30.18R
LANGLEY AFB    MOCLDY    37  37  99 NW8       30.18R
FORT EUSTIS    CLOUDY    41  32  69 NW8       30.17R
WILLIAMSBURG*  CLOUDY    39  37  93 NW5       30.19R
HR EXEC AP*    CLOUDY    37  36  93 CALM      30.20R
FRANKLIN*      CLOUDY    39 N/A N/A CALM      30.19R
WAKEFIELD      CLOUDY    40  36  86 CALM      30.19R
$$

VAZ020-022-025-037-045-280400-
WEST CENTRAL AND SOUTHWEST VIRGINIA

CITY           SKY/WX    TMP DP  RH WIND       PRES   REMARKS
STAUNTON*      PTCLDY    31  23  71 W3        30.20R
WAYNESBORO*    MOCLDY    31  22  68 W7        30.17S
HOT SPRINGS VA LGT SNOW  21  19  93 NW17G30   30.05R WCI   6
LYNCHBURG      CLOUDY    35  21  56 VRB6      30.23S
DANVILLE       PTCLDY    38  23  55 NW9       30.25S
SOUTH BOSTON*  CLEAR     35  23  62 NW8       30.24S
MARTINSVILLE   MOCLDY    35  20  53 NW10G20   30.29R
ROANOKE        MOCLDY    33  19  56 NW17G28   30.26R WCI  22
BLACKSBURG     CLOUDY    28  21  74 NW13      30.24R WCI  18
DUBLIN*        CLOUDY    30  19  64 W12G17    30.24S WCI  21
MARION*        FLURRIES  28  18  68 W14       30.25S WCI  17
HILLSVILLE*    CLOUDY    26  16  65 NW16      30.20R WCI  13
RICHLANDS*     FLURRIES  28  24  86 W6        30.26S
WISE*          FLURRIES  27  25  93 W7        30.28S
ABINGDON*      CLOUDY    30  22  70 NW6       30.30S
$$

MDZ021>025-VAZ099-100-280400-
SOUTHERN MARYLAND AND THE DELMARVA PENINSULA

CITY           SKY/WX    TMP DP  RH WIND       PRES   REMARKS
PATUXENT RIVER CLEAR     37  28  70 W13       30.16R
BAY BRIDGE APT   N/A     37  30  75 W6        30.15S
LEONARDTOWN    FAIR      36  28  75 W6        30.18R
DOVER          CLEAR     33  29  83 W5        30.10S
GEORGETOWN     PTCLDY    35  28  75 W3        30.14R
EASTON         CLEAR     36  32  84 NW5       30.18R
CAMBRIDGE      CLEAR     39  32  75 NW7       30.14R
SALISBURY      CLEAR     32  28  85 CALM      30.14R
OCEAN CITY     CLEAR     33  28  81 NW6       30.14R
WALLOPS ISLAND PTCLDY    35  31  85 N6        30.14R
ACCOMACK*      MOCLDY    41  30  65 NW10      30.14S
$$

NCZ012>017-030>032-280400-
NORTH CENTRAL AND EASTERN NORTH CAROLINA

CITY           SKY/WX    TMP DP  RH WIND       PRES   REMARKS
ROANOKE RAPIDS CLEAR     36  28  75 NW8       30.22R
RALEIGH        PTCLDY    39  25  57 VRB5      30.24R
ELIZABETH CITY CLOUDY    43  36  76 W8        30.18R
AHOSKIE*       CLOUDY    40  36  85 W3        30.21R
EDENTON*       MOCLDY    40  38  95 NW5       30.18S
CURRITUCK*     CLOUDY    40  37  89 W3        30.18R
KILL DEVIL HLS PTCLDY    42  37  80 NW8       30.13R
MANTEO         PTCLDY    42  35  75 N9G17     30.14S
CAPE HATTERAS  MOCLDY    44  39  82 N8G21     30.14R
TARBORO*       MOCLDY    40  30  66 NW7       30.23R
GOLDSBORO      CLEAR     41  35  79 NW8       30.21R
WASHINGTON     CLOUDY    40  37  87 NW6       30.21R
GREENVILLE     CLOUDY    41  32  70 NW6       30.22R
NEW BERN       CLEAR     43  34  70 NW8       30.20S
WILMINGTON     CLEAR     41  36  82 N8        30.22R
$$

VAZ048-280400-
ELSEWHERE

CITY           SKY/WX    TMP DP  RH WIND       PRES   REMARKS
HARRISBURG PA  MOCLDY    35  28  75 W10       30.12R
BALTIMORE      MOCLDY    36  29  75 W7        30.15R
ANNAPOLIS      CLOUDY    36  29  75 W5        30.16R
ANDREWS AFB    PTCLDY    38  28  66 NW15      30.15R
PHILADELPHIA   PTCLDY    32  25  75 N5        30.12S
WILDWOOD NJ*   CLEAR     37  25  60 NW8       30.10S
HENDERSON NC   CLEAR     36  23  59 NW6       30.23S
GREENSBORO     PTCLDY    37  23  56 NW10      30.23S
ROCKY MOUNT    CLEAR     38  27  64 NW8       30.23R
$$

VAZ100-280400-
MARINE

STATION/POSITION TIME  TEMP    WIND        PRES    WAVE   SWELL
                       AIR SEA DIR/SP/G            HT/PER HT/PER
                 (UTC) (F)     (DEG/KT/KT) (MB)    (FT/S) (FT/S)
CAPE MAY NJ      0300   39 48  320/  8/ 14 1019.3S
LEWES DE         0300   39 47  330/ 14/ 19 1019.8S
15NM E FENWICK I 0300   42 54              1019.0R   4/ 5
OCEAN-CITY-INLET 0300   37 47  340/  7/  9 1020.0R
WACHAPREAGUE VA  0300   40 47  330/  5/  8 1020.6R
THOMAS POINT MD  0300   38 47  290/  9/ 11 1022.3R
GOOSES REEF MD   0300   40 48  310/ 16/ 19 1021.3S   2/ 2
COVE POINT MD    0300   38     320/ 12/ 15 1020.8S
SOLOMONS ISLAND  0300      48                N/A
BISHOPS HEAD MD  0300   38 44  320/  6/  7 1020.4S
PINEY POINT MD   0300          340/ 21/ 24   N/A
POTOMAC MD       0300   42     340/ 16/ 19 1020.5R
CAMBRIDGE MD     0300   40 45  300/ 11/ 14 1020.6S
LEWISETTA VA     0300   41 47  320/  9/ 16 1021.2S
RAPPAHANNOCK LGT 0300          320/ 22/ 26 1021.1R
STINGRAY PT      0300   41 49  330/ 16/ 17 1021.7R   1/ 2
YORK RVR RNG VA  0300   40     330/ 12/ 16 1021.0R
YORKTOWN VA      0300   41 50  330/ 12/ 14 1021.4R
JAMESTOWN VA     0300   40 49  340/  8/ 10   N/A     0
DOMINION TERM VA 0300   42     340/ 10/ 13 1021.6R
KIPTOPEKE VA     0300      54  350/ 19/ 24   N/A
CHES BAY BRIDGE  0300   43 51  320/ 18/ 21 1020.7R
CAPE HENRY VA    0300   43     330/ 20/ 24 1019.7S
CHESAPEAKE LGHT  0200   44     340/ 16/ 17 1021.0R
WILLOUBY STN VA  0300   40     340/  9/ 10 1020.3R
S CRANEY ISL VA  0300          300/ 10/ 16 1021.4R
CAPE HENRY BUOY  0200      55                N/A     4/ 9
1ST LANDING BUOY 0300   44 52  330/ 19/ 23 1020.8R   3/ 3
CAPE CHARLES BUO 0300      54                N/A     3/ 8   2/ 8
64NM E OF VA BCH 0300   48 63  340/ 23/ 29 1018.4R   6/ 5   2/ 9
DUCK PIER NC     0300   43 53  310/ 12/ 17 1020.0R
44100 DUCK FRF   0300      57                N/A     5/ 5   2/11
44056 DUCK FRF   0300      54                N/A     5/ 5   2/14
OREGON INLET NC  0300   44 56  320/ 12/ 17 1020.2S
HATTERAS NC      0300   46 58  330/ 19/ 23 1021.0R
DIAMOND SHLS NC  0300   49     320/ 23/ 29 1019.3R   7/ 7   2/14
CAPE LOOKOUT NC  0200   46     310/ 15/ 17 1021.4R
$$



USA.gov is the U.S. government's official web portal to all federal, state and local government web resources and services.